Latest Coastal Weather Observations for Stenhouse Bay

IDS60701

Issued at 6:51 pm CST Saturday 19 August 2017 (issued every 10 minutes, with the page automatically refreshed every 10 minutes)

About coastal observations | Map of coastal stations | Coastal observations for SA | Marine services | Other Formats
Station Details ID: 022049 Name: STENHOUSE BAY Lat: -35.28 Lon: 136.94 Height: 42.0 m
Data from the previous 72 hours. | See also: Recent months at Stenhouse Bay
Date/Time
CST
Temp
°C
Wind Pressure Rain since
9am
mm
Weather Cloud Vis
km
Sea
Height
m
Swell
Dir  Spd
kts
Gust
kts
hPa Trend Height
m
Period
s
Dir
19/06:30pm 11.4 ENE 7 8 1027.5 - 0.0 - - - - - - -
19/06:00pm 11.2 E 6 8 1027.5 - 0.0 - - - - - - -
19/05:30pm 11.7 ESE 5 6 1027.6 - 0.0 - - - - - - -
19/05:00pm 12.9 ESE 4 6 1027.6 - 0.0 - - - - - - -
19/04:30pm 13.3 ESE 4 5 1027.5 - 0.0 - - - - - - -
19/04:00pm 13.2 ESE 3 5 1027.5 - 0.0 - - - - - - -
19/03:30pm 13.8 E 4 6 1027.5 - 0.0 - - - - - - -
19/03:00pm 13.9 E 5 7 1027.7 - 0.0 - - - - - - -
19/02:30pm 14.2 E 6 7 1027.6 - 0.0 - - - - - - -
19/02:00pm 14.1 E 5 6 1028.0 - 0.0 - - - - - - -
19/01:30pm 14.3 ENE 4 6 1028.2 - 0.0 - - - - - - -
19/01:00pm 14.0 ESE 5 7 1028.6 - 0.0 - - - - - - -
19/12:30pm 14.2 E 4 6 1029.1 - 0.0 - - - - - - -
19/12:00pm 13.7 SE 5 7 1029.6 - 0.0 - - - - - - -
19/11:30am 14.0 SSE 5 8 1029.9 - 0.0 - - - - - - -
19/11:00am 13.6 SSE 6 8 1030.1 - 0.0 - - - - - - -
19/10:30am 13.6 SSE 6 8 1030.2 - 0.0 - - - - - - -
19/10:00am 13.4 SSE 7 8 1030.2 - 0.0 - - - - - - -
19/09:30am 13.3 SSE 8 10 1030.3 - 0.0 - - - - - - -
19/09:00am 12.8 SSE 9 11 1030.1 - 0.0 - - - - - - -
19/08:30am 12.4 S 9 12 1029.9 - 0.0 - - - - - - -
19/08:00am 11.9 S 10 13 1029.6 - 0.0 - - - - - - -
19/07:30am 11.4 S 10 13 1029.2 - 0.0 - - - - - - -
19/07:00am 11.1 S 10 13 1028.8 - 0.0 - - - - - - -
19/06:30am 11.1 S 9 13 1028.4 - 0.0 - - - - - - -
19/06:00am 11.2 S 11 14 1028.2 - 0.0 - - - - - - -
19/05:30am 11.0 S 10 13 1028.0 - 0.0 - - - - - - -
19/05:00am 10.9 S 9 12 1027.8 - 0.0 - - - - - - -
19/04:30am 11.1 S 10 13 1027.6 - 0.0 - - - - - - -
19/04:00am 11.0 S 10 14 1027.4 - 0.0 - - - - - - -
19/03:30am 11.0 S 11 14 1027.3 - 0.0 - - - - - - -
19/03:00am 11.0 S 12 15 1027.3 - 0.0 - - - - - - -
19/02:30am 11.1 S 11 14 1027.4 - 0.0 - - - - - - -
19/02:00am 11.1 S 12 16 1027.3 - 0.0 - - - - - - -
19/01:30am 11.2 S 12 16 1027.3 - 0.0 - - - - - - -
19/01:00am 11.3 S 11 16 1027.3 - 0.0 - - - - - - -
19/12:30am 11.4 S 13 17 1027.3 - 0.0 - - - - - - -
19/12:00am 11.4 S 12 15 1027.3 - 0.0 - - - - - - -
 
Date/Time
CST
Temp
°C
Wind Pressure Rain since
9am
mm
Weather Cloud Vis
km
Sea
Height
m
Swell
Dir  Spd
kts
Gust
kts
hPa Trend Height
m
Period
s
Dir
18/11:30pm 11.5 S 11 15 1027.3 - 0.0 - - - - - - -
18/11:00pm 11.8 S 11 15 1027.3 - 0.0 - - - - - - -
18/10:30pm 11.6 S 12 15 1027.1 - 0.0 - - - - - - -
18/10:00pm 11.8 SSW 11 17 1027.1 - 0.0 - - - - - - -
18/09:30pm 11.3 SW 10 14 1027.2 - 0.0 - - - - - - -
18/09:00pm 10.9 SSW 7 12 1027.0 - 0.0 - - - - - - -
18/08:30pm 11.0 SSW 7 11 1026.8 - 0.0 - - - - - - -
18/08:00pm 11.7 SSW 8 13 1026.5 - 0.0 - - - - - - -
18/07:30pm 12.1 SW 14 23 1026.3 - 0.0 - - - - - - -
18/07:00pm 12.3 SW 14 19 1026.0 - 0.0 - - - - - - -
18/06:30pm 12.3 SW 15 21 1025.7 - 0.0 - - - - - - -
18/06:00pm 12.3 SW 13 19 1025.5 - 0.0 - - - - - - -
18/05:30pm 12.5 SW 15 20 1025.1 - 0.0 - - - - - - -
18/05:00pm 12.5 SW 15 23 1024.7 - 0.0 - - - - - - -
18/04:30pm 13.1 SW 16 23 1024.4 - 0.0 - - - - - - -
18/04:00pm 13.0 SW 18 23 1024.2 - 0.0 - - - - - - -
18/03:30pm 13.8 SW 16 22 1024.1 - 0.0 - - - - - - -
18/03:00pm 13.4 SW 17 23 1024.0 - 0.0 - - - - - - -
18/02:30pm 13.9 SW 16 22 1023.8 - 0.0 - - - - - - -
18/02:00pm 13.8 SW 18 25 1023.8 - 0.0 - - - - - - -
18/01:30pm 12.9 SW 19 26 1023.7 - 0.0 - - - - - - -
18/01:00pm 13.9 SW 18 26 1023.5 - 0.0 - - - - - - -
18/12:30pm 13.7 SW 18 25 1023.6 - 0.0 - - - - - - -
18/12:00pm 13.5 SW 21 27 1023.7 - 0.0 - - - - - - -
18/11:31am 14.0 WSW 17 27 1023.7 - 0.0 - - - - - - -
18/11:30am 13.9 SW 18 27 1023.7 - 0.0 - - - - - - -
18/11:02am 13.7 SW 18 28 1023.5 - 0.0 - - - - - - -
18/11:00am 13.7 SW 17 26 1023.5 - 0.0 - - - - - - -
18/10:34am 11.3 SW 18 29 1023.5 - 0.0 - - - - - - -
18/10:30am 11.2 SW 19 29 1023.4 - 0.0 - - - - - - -
18/10:00am 12.2 SW 18 26 1023.1 - 0.0 - - - - - - -
18/09:35am 12.5 SW 18 31 1022.4 - 0.0 - - - - - - -
18/09:30am 13.1 SW 18 25 1022.4 - 0.0 - - - - - - -
18/09:01am 11.7 SW 16 27 1022.0 - 0.0 - - - - - - -
18/09:00am 11.7 SW 17 27 1021.9 - 2.8 - - - - - - -
18/08:34am 12.4 SW 18 28 1021.3 - 2.8 - - - - - - -
18/08:30am 12.4 SW 19 26 1021.3 - 2.8 - - - - - - -
18/08:00am 12.1 SW 21 29 1020.6 - 2.8 - - - - - - -
18/07:31am 11.5 WSW 20 31 1020.0 - 2.8 - - - - - - -
18/07:30am 11.5 WSW 20 27 1020.0 - 2.8 - - - - - - -
18/07:06am 11.1 SW 19 31 1019.7 - 2.8 - - - - - - -
18/07:00am 10.5 SW 19 24 1019.8 - 2.8 - - - - - - -
18/06:35am 11.7 SW 23 34 1019.1 - 2.8 - - - - - - -
18/06:30am 11.6 SW 22 30 1019.2 - 2.8 - - - - - - -
18/06:00am 11.5 SW 21 33 1018.6 - 2.8 - - - - - - -
18/05:30am 11.4 SW 22 33 1018.2 - 2.8 - - - - - - -
18/05:00am 10.2 WSW 24 38 1017.8 - 2.8 - - - - - - -
18/04:30am 8.6 WSW 20 33 1017.3 - 2.6 - - - - - - -
18/04:02am 10.8 WSW 19 30 1017.1 - 1.8 - - - - - - -
18/04:00am 10.8 SW 21 30 1017.0 - 1.8 - - - - - - -
18/03:31am 11.8 SW 21 32 1016.5 - 1.8 - - - - - - -
18/03:30am 11.9 SW 21 30 1016.5 - 1.8 - - - - - - -
18/03:08am 11.3 WSW 19 30 1016.4 - 1.8 - - - - - - -
18/03:00am 11.1 WSW 19 27 1016.4 - 1.8 - - - - - - -
18/02:42am 11.4 WSW 22 33 1016.2 - 1.8 - - - - - - -
18/02:30am 11.3 WSW 20 28 1016.2 - 1.8 - - - - - - -
18/02:00am 10.2 WSW 17 27 1016.0 - 1.8 - - - - - - -
18/01:30am 8.6 WSW 23 39 1016.1 - 1.8 - - - - - - -
18/01:00am 11.8 WSW 22 32 1015.6 - 1.6 - - - - - - -
18/12:30am 11.4 WSW 22 37 1015.0 - 1.6 - - - - - - -
18/12:05am 11.1 WSW 20 30 1014.8 - 1.6 - - - - - - -
18/12:00am 11.1 WSW 18 27 1014.9 - 1.6 - - - - - - -
 
Date/Time
CST
Temp
°C
Wind Pressure Rain since
9am
mm
Weather Cloud Vis
km
Sea
Height
m
Swell
Dir  Spd
kts
Gust
kts
hPa Trend Height
m
Period
s
Dir
17/11:30pm 10.5 WSW 22 33 1014.9 - 1.6 - - - - - - -
17/11:00pm 10.5 WSW 19 33 1014.3 - 1.6 - - - - - - -
17/10:30pm 11.7 WSW 23 35 1013.8 - 1.4 - - - - - - -
17/10:00pm 11.7 WSW 24 37 1013.4 - 1.4 - - - - - - -
17/09:31pm 11.5 WSW 20 31 1013.1 - 1.4 - - - - - - -
17/09:30pm 11.6 WSW 20 28 1013.1 - 1.4 - - - - - - -
17/09:00pm 10.9 WSW 21 32 1012.8 - 1.4 - - - - - - -
17/08:31pm 11.8 WSW 23 34 1012.4 - 1.4 - - - - - - -
17/08:30pm 11.8 WSW 22 31 1012.4 - 1.4 - - - - - - -
17/08:00pm 11.6 WSW 24 35 1011.9 - 1.4 - - - - - - -
17/07:30pm 11.3 WSW 21 33 1011.6 - 1.4 - - - - - - -
17/07:00pm 11.5 WSW 24 36 1011.0 - 1.4 - - - - - - -
17/06:30pm 11.5 W 22 33 1010.6 - 1.4 - - - - - - -
17/06:06pm 11.4 WSW 23 37 1010.4 - 1.4 - - - - - - -
17/06:00pm 11.4 WSW 23 31 1010.3 - 1.4 - - - - - - -
17/05:30pm 12.1 W 22 34 1009.9 - 1.4 - - - - - - -
17/05:09pm 12.7 W 24 43 1009.2 - 1.4 - - - - - - -
17/05:00pm 12.6 W 22 32 1009.1 - 1.4 - - - - - - -
17/04:30pm 13.1 W 22 38 1008.7 - 1.4 - - - - - - -
17/04:00pm 13.7 W 26 36 1008.4 - 1.4 - - - - - - -
17/03:30pm 14.4 W 21 33 1008.0 - 1.4 - - - - - - -
17/03:00pm 14.2 W 23 35 1008.0 - 1.4 - - - - - - -
17/02:30pm 13.6 W 21 34 1007.8 - 1.4 - - - - - - -
17/02:00pm 10.6 W 23 34 1008.1 - 1.4 - - - - - - -
17/01:30pm 12.7 W 23 41 1007.6 - 1.0 - - - - - - -
17/01:00pm 13.5 W 22 36 1007.5 - 1.0 - - - - - - -
17/12:30pm 11.3 WSW 20 32 1007.6 - 1.0 - - - - - - -
17/12:00pm 10.2 WSW 23 41 1007.8 - 0.8 Rain - - - - - -
17/11:53am 11.7 W 19 41 1007.9 - 0.4 - - - - - - -
17/11:37am 14.5 W 20 30 1007.4 - 0.0 - - - - - - -
17/11:30am 14.2 W 23 32 1007.5 - 0.0 - - - - - - -
17/11:00am 14.6 W 17 27 1007.5 - 0.0 - - - - - - -
17/10:30am 14.6 W 23 34 1007.4 - 0.0 - - - - - - -
17/10:00am 14.9 W 21 33 1007.0 - 0.0 - - - - - - -
17/09:33am 14.6 W 19 32 1006.9 - 0.0 - - - - - - -
17/09:30am 14.5 W 19 28 1006.9 - 0.0 - - - - - - -
17/09:00am 13.7 WNW 17 28 1006.8 - 8.8 - - - - - - -
17/08:30am 13.2 WNW 18 31 1006.6 - 8.8 - - - - - - -
17/08:29am 13.2 WNW 18 31 1006.6 - 8.8 - - - - - - -
17/08:00am 12.2 W 16 23 1006.3 - 8.8 - - - - - - -
17/07:30am 11.6 WSW 15 22 1006.2 - 8.8 - - - - - - -
17/07:15am 12.3 W 16 27 1006.0 - 8.8 - - - - - - -
17/07:00am 12.1 W 15 24 1005.9 - 8.8 - - - - - - -
17/06:30am 11.9 W 16 25 1005.5 - 8.8 - - - - - - -
17/06:01am 11.8 W 17 28 1005.4 - 8.8 - - - - - - -
17/06:00am 11.6 W 17 23 1005.4 - 8.8 - - - - - - -
17/05:33am 10.8 WSW 15 25 1005.5 - 8.8 - - - - - - -
17/05:30am 11.7 WSW 14 19 1005.4 - 8.8 - - - - - - -
17/05:00am 11.7 W 15 25 1005.1 - 8.8 - - - - - - -
17/04:59am 11.7 W 15 25 1005.1 - 8.8 - - - - - - -
17/04:30am 11.7 W 16 22 1004.9 - 8.6 - - - - - - -
17/04:00am 11.1 W 12 17 1004.8 - 8.6 - - - - - - -
17/03:30am 9.9 W 15 22 1005.1 - 8.6 - - - - - - -
17/03:07am 9.6 W 16 27 1004.5 - 8.6 - - - - - - -
17/03:00am 9.8 W 19 28 1004.9 - 8.6 Rain - - - - - -
17/02:55am 10.7 W 15 26 1005.3 - 8.0 - - - - - - -
17/02:30am 10.6 WNW 13 21 1005.1 - 7.6 - - - - - - -
17/02:03am 10.9 WNW 16 26 1005.2 - 6.6 - - - - - - -
17/02:00am 11.2 WNW 14 23 1005.3 - 6.6 - - - - - - -
17/01:30am 11.1 WNW 12 16 1005.1 - 6.2 - - - - - - -
17/01:00am 10.8 WNW 10 17 1005.3 - 6.2 - - - - - - -
17/12:30am 10.6 W 11 18 1005.7 - 6.0 - - - - - - -
17/12:12am 10.8 WNW 15 27 1006.1 - 5.6 - - - - - - -
17/12:00am 12.3 WNW 12 17 1005.7 - 3.2 Recent precip. - - - - - -
 
Date/Time
CST
Temp
°C
Wind Pressure Rain since
9am
mm
Weather Cloud Vis
km
Sea
Height
m
Swell
Dir  Spd
kts
Gust
kts
hPa Trend Height
m
Period
s
Dir
16/11:30pm 12.1 NW 12 16 1005.7 - 2.8 - - - - - - -
16/11:00pm 11.9 NW 12 18 1006.1 - 2.8 - - - - - - -
16/10:30pm 12.0 NW 11 16 1006.4 - 2.8 - - - - - - -
16/10:00pm 12.0 WNW 13 18 1006.6 - 2.8 - - - - - - -
16/09:30pm 12.1 WNW 8 10 1006.6 - 2.4 - - - - - - -
16/09:00pm 11.9 WNW 10 14 1006.8 - 2.4 Recent precip. - - - - - -
16/08:30pm 11.4 WNW 12 16 1006.6 - 2.4 - - - - - - -
16/08:00pm 11.9 WNW 14 22 1006.4 - 2.2 - - - - - - -
16/07:30pm 12.1 W 16 24 1006.0 - 2.0 - - - - - - -
16/07:03pm 13.4 WNW 18 28 1005.6 - 0.0 - - - - - - -
16/07:00pm 13.4 WNW 19 28 1005.5 - 0.0 - - - - - - -

Other Formats:

Comma delimited format used in spreadsheet applications
http://www.bom.gov.au/fwo/IDS60701/IDS60701.95806.axf

JavaScript Object Notation format (JSON) in row-major order
http://www.bom.gov.au/fwo/IDS60701/IDS60701.95806.json